FW5647 Weather Reports


time (UTC)temp
C
wind
direction
speed
KPH
gust
KPH
rain 1hr
cm
rain 24hr
cm
rain mn
cm
humidity
%
barometer
mb
20260509000036 16 259 3.2 11.3 0.00 0.00 0.00 45 1006.5
20260508234534 17 255 4.8 11.3 0.00 0.00 0.00 42 1006.5
20260508233037 17 231 4.8 9.7 0.00 0.00 0.00 40 1006.5
20260508231537 17 321 4.8 16.1 0.00 0.00 0.00 40 1006.5
20260508230050 17 212 3.2 11.3 0.00 0.00 0.00 41 1006.6
20260508224537 17 331 4.8 19.3 0.00 0.00 0.00 39 1006.6
20260508223034 17 282 3.2 22.5 0.00 0.00 0.00 39 1006.6
20260508221537 18 293 3.2 11.3 0.00 0.00 0.00 40 1006.8
20260508220046 17 266 4.8 14.5 0.00 0.00 0.00 42 1007.0
20260508214546 17 252 4.8 22.5 0.00 0.00 0.00 40 1006.9
20260508213037 17 253 4.8 19.3 0.00 0.00 0.00 42 1007.0
20260508211536 18 309 8.0 16.1 0.00 0.00 0.00 41 1006.9
20260508210042 17 239 4.8 20.9 0.00 0.00 0.00 41 1007.1
20260508204541 17 271 6.4 19.3 0.00 0.00 0.00 38 1007.0
20260508203037 17 263 8.0 17.7 0.00 0.00 0.00 38 1007.2
20260508201537 17 241 8.0 20.9 0.00 0.00 0.00 38 1007.4
20260508200045 16 256 3.2 20.9 0.00 0.00 0.00 39 1007.7
20260508194535 17 256 9.7 20.9 0.00 0.00 0.00 39 1008.0
20260508193037 17 307 8.0 20.9 0.00 0.00 0.00 41 1008.2
20260508191544 16 310 6.4 24.1 0.00 0.00 0.00 39 1008.5
20260508190049 16 278 6.4 16.1 0.00 0.00 0.00 41 1008.8
20260508184556 16 248 8.0 22.5 0.00 0.00 0.00 42 1009.2
20260508183037 16 293 6.4 12.9 0.00 0.00 0.00 42 1009.3
20260508181550 16 91 6.4 14.5 0.00 0.00 0.00 41 1009.4
20260508180036 15 320 4.8 19.3 0.00 0.00 0.00 43 1009.4
20260508174543 15 296 8.0 24.1 0.00 0.00 0.00 43 1009.8
20260508173043 15 241 9.7 20.9 0.00 0.00 0.00 40 1009.8
20260508171536 15 257 8.0 20.9 0.00 0.00 0.00 41 1010.3
20260508170040 15 101 4.8 12.9 0.00 0.00 0.00 44 1010.6
20260508164554 15 210 4.8 12.9 0.00 0.00 0.00 47 1010.8
20260508163040 13 321 1.6 12.9 0.00 0.00 0.00 47 1010.7
20260508161547 13 264 6.4 20.9 0.00 0.00 0.00 48 1011.0
20260508160040 13 263 4.8 11.3 0.00 0.00 0.00 50 1011.2
20260508154541 13 245 4.8 11.3 0.00 0.00 0.00 52 1011.3
20260508153103 12 270 3.2 12.9 0.00 0.00 0.00 52 1011.4
20260508151533 12 349 1.6 8.0 0.00 0.00 0.00 53 1011.5
20260508150045 12 23 4.8 11.3 0.00 0.00 0.00 54 1011.6
20260508144551 11 83 3.2 9.7 0.00 0.00 0.00 52 1011.6
20260508143037 11 262 4.8 9.7 0.00 0.00 0.00 52 1011.9
20260508141542 12 226 1.6 8.0 0.00 0.00 0.00 63 1011.9
20260508140048 10 240 3.2 8.0 0.00 0.00 0.00 65 1012.1
20260508134540 10 125 1.6 4.8 0.00 0.00 0.00 69 1012.2
20260508133104 11 272 1.6 4.8 0.00 0.00 0.00 70 1012.3
20260508131538 10 92 0.0 3.2 0.00 0.00 0.00 75 1012.2
20260508130038 8 150 1.6 6.4 0.00 0.00 0.00 78 1012.2
20260508124536 8 106 3.2 6.4 0.00 0.00 0.00 79 1012.1
20260508123039 7 108 1.6 6.4 0.00 0.00 0.00 82 1011.9
20260508121538 7 124 1.6 6.4 0.00 0.00 0.00 86 1011.9
20260508120037 5 0 0.0 1.6 0.00 0.00 0.00 94 1011.8
20260508114536 3 0 0.0 0.0 0.00 0.00 0.00 94 1011.5
20260508113034 3 0 0.0 0.0 0.00 0.00 0.00 94 1011.3
20260508111535 2 0 0.0 0.0 0.00 0.00 0.00 93 1011.2
20260508110047 1 0 0.0 0.0 0.00 0.00 0.00 92 1011.1
20260508104539 1 0 0.0 0.0 0.00 0.00 0.00 92 1011.1
20260508103035 1 0 0.0 0.0 0.00 0.00 0.00 91 1010.8
20260508101534 1 0 0.0 0.0 0.00 0.00 0.00 91 1010.9
20260508100032 2 0 0.0 0.0 0.00 0.00 0.00 91 1010.9
20260508094534 2 0 0.0 0.0 0.00 0.00 0.00 90 1010.9
20260508093038 2 0 0.0 0.0 0.00 0.00 0.00 90 1010.9
20260508091542 2 0 0.0 0.0 0.00 0.00 0.00 90 1011.0
20260508090045 3 0 0.0 0.0 0.00 0.00 0.00 89 1011.0
20260508084535 3 0 0.0 0.0 0.00 0.00 0.00 88 1010.9
20260508083042 3 0 0.0 0.0 0.00 0.00 0.00 88 1011.0
20260508081537 4 0 0.0 0.0 0.00 0.00 0.00 86 1011.1
20260508080032 5 0 0.0 0.0 0.00 0.00 0.00 85 1011.2
20260508074544 5 0 0.0 1.6 0.00 0.00 0.00 84 1011.2
20260508073041 6 0 0.0 3.2 0.00 0.00 0.00 83 1011.3
20260508071549 6 0 0.0 3.2 0.00 0.00 0.00 81 1011.4
20260508070036 6 249 1.6 3.2 0.00 0.00 0.00 82 1011.5
20260508064538 6 281 0.0 4.8 0.00 0.00 0.00 80 1011.3
20260508063032 6 0 0.0 4.8 0.00 0.00 0.00 81 1011.3
20260508061537 6 0 0.0 1.6 0.00 0.00 0.00 82 1011.3
20260508060037 6 250 0.0 1.6 0.00 0.00 0.00 81 1011.5
20260508054535 5 0 0.0 0.0 0.00 0.00 0.00 81 1011.4
20260508053058 5 0 0.0 1.6 0.00 0.00 0.00 81 1011.5
20260508051535 5 0 0.0 1.6 0.00 0.00 0.00 79 1011.5
20260508050039 6 0 0.0 1.6 0.00 0.00 0.00 78 1011.6
20260508044537 6 127 0.0 1.6 0.00 0.00 0.00 77 1011.4
20260508043036 6 0 0.0 0.0 0.00 0.00 0.00 75 1011.6
20260508041558 7 0 0.0 1.6 0.00 0.00 0.00 72 1011.6
20260508040043 8 0 0.0 6.4 0.00 0.00 0.00 71 1011.4
20260508034535 8 257 1.6 6.4 0.00 0.00 0.00 71 1011.5
20260508033035 8 190 0.0 4.8 0.00 0.00 0.00 71 1011.3
20260508031537 8 160 0.0 3.2 0.00 0.00 0.00 70 1011.5
20260508030038 8 0 0.0 1.6 0.00 0.00 0.00 70 1011.8
20260508024538 8 0 0.0 0.0 0.00 0.00 0.00 67 1011.8
20260508023035 8 0 0.0 4.8 0.00 0.00 0.00 66 1011.7
20260508021534 9 0 0.0 3.2 0.00 0.00 0.00 65 1011.6
20260508020040 10 239 1.6 19.3 0.00 0.00 0.00 61 1011.6
20260508014537 9 120 3.2 9.7 0.00 0.00 0.00 58 1011.6
20260508013038 8 237 1.6 3.2 0.00 0.00 0.00 60 1011.5
20260508011540 8 0 0.0 1.6 0.00 0.00 0.00 58 1011.1
20260508010034 10 0 0.0 0.0 0.00 0.00 0.00 56 1010.9
20260508004534 10 256 0.0 3.2 0.00 0.00 0.00 51 1011.0
20260508003036 10 265 3.2 8.0 0.00 0.00 0.00 50 1010.9
20260508001537 11 300 4.8 12.9 0.00 0.00 0.00 49 1011.0